Find Starlink 5181

NORAD ID: 54070 Int'l Des: 2022-136 Owner: SPXS Country: US Constellation: starlink operational
LEOCIRCULAR

Live Position

Loading 3D Globe...

About Starlink 5181

Description loading...

Upcoming Passes

Passes for default location (London). Set your location on the main map for personalized predictions.

Altitude History

Loading altitude history...

Two-Line Element Set

1 54070U 22136V 26104.22992030 .00001128 00000-0 88961-4 0 9998
2 54070 53.2160 184.2695 0001346 88.8798 271.2348 15.08820954192216
Epoch: Apr 14, 2026 • Age: 3 hours

Current Status

Altitude 540.7 km
Velocity 7.60 km/s
Sub-Earth Point 28.77°N, 127.7°W
Launch Date Oct 20, 2022
Age 3.4 years
Type internet

Technical Details

Classification Payload
Mass 305.00 kg
Dry Mass 290.00 kg
Total Mass 305.00 kg
Length 0.20 m
Diameter 2.80 m
Span 9.00 m
Shape Box + pan
Manufacturer SPXS
Bus Type Starlink
Phase Status In Orbit
Owner/State SPXS/US

Most Searched